| time (UTC) | temp F | wind direction | speed knots | gust knots | rain 1hr in | rain 24hr in | rain mn in | humidity % | barometer mb |
| 20260508140544 | 71 | 9 | 0.0 | 5.2 | 0.00 | 0.00 | 0.00 | 59 | 1012.2 |
| 20260508135544 | 71 | 312 | 0.9 | 2.6 | 0.00 | 0.00 | 0.00 | 60 | 1012.0 |
| 20260508135051 | 71 | 310 | 0.0 | 5.2 | 0.00 | 0.00 | 0.00 | 61 | 1011.9 |
| 20260508134547 | 71 | 330 | 2.6 | 5.2 | 0.00 | 0.00 | 0.00 | 57 | 1011.9 |
| 20260508134048 | 72 | 314 | 1.7 | 3.5 | 0.00 | 0.00 | 0.00 | 54 | 1012.2 |
| 20260508133546 | 72 | 314 | 1.7 | 2.6 | 0.00 | 0.00 | 0.00 | 52 | 1012.0 |
| 20260508133049 | 72 | 104 | 0.0 | 2.6 | 0.00 | 0.00 | 0.00 | 54 | 1012.0 |
| 20260508132544 | 72 | 148 | 0.9 | 2.6 | 0.00 | 0.00 | 0.00 | 55 | 1012.0 |
| 20260508132049 | 72 | 314 | 0.0 | 2.6 | 0.00 | 0.00 | 0.00 | 53 | 1012.0 |
| 20260508131545 | 72 | 211 | 0.0 | 3.5 | 0.00 | 0.00 | 0.00 | 52 | 1012.0 |
| 20260508131049 | 73 | 98 | 0.9 | 3.5 | 0.00 | 0.00 | 0.00 | 54 | 1012.1 |
| 20260508130545 | 73 | 123 | 0.0 | 2.6 | 0.00 | 0.00 | 0.00 | 55 | 1012.1 |
| 20260508130049 | 73 | 318 | 0.9 | 2.6 | 0.00 | 0.00 | 0.00 | 51 | 1012.1 |
| 20260508125546 | 73 | 138 | 0.0 | 2.6 | 0.00 | 0.00 | 0.00 | 53 | 1012.1 |
| 20260508124050 | 72 | 180 | 0.9 | 3.5 | 0.00 | 0.00 | 0.00 | 54 | 1012.0 |
| 20260508123548 | 72 | 316 | 0.9 | 5.2 | 0.00 | 0.00 | 0.00 | 50 | 1011.9 |
| 20260508123048 | 73 | 315 | 3.5 | 5.2 | 0.00 | 0.00 | 0.00 | 50 | 1012.0 |
| 20260508122545 | 72 | 315 | 0.9 | 2.6 | 0.00 | 0.00 | 0.00 | 52 | 1012.1 |
| 20260508121546 | 72 | 333 | 0.0 | 2.6 | 0.00 | 0.00 | 0.00 | 54 | 1012.2 |
| 20260508121045 | 72 | 309 | 0.9 | 3.5 | 0.00 | 0.00 | 0.00 | 53 | 1012.3 |
| 20260508120546 | 72 | 319 | 0.9 | 3.5 | 0.00 | 0.00 | 0.00 | 55 | 1012.2 |
| 20260508120047 | 72 | 314 | 1.7 | 2.6 | 0.00 | 0.00 | 0.00 | 53 | 1012.1 |
| 20260508115546 | 72 | 296 | 0.0 | 0.0 | 0.00 | 0.00 | 0.00 | 56 | 1012.1 |
| 20260508114534 | 73 | 295 | 0.0 | 0.9 | 0.00 | 0.00 | 0.00 | 51 | 1012.1 |
| 20260508114006 | 73 | 310 | 0.0 | 0.0 | 0.00 | 0.00 | 0.00 | 51 | 1012.3 |
| 20260508113508 | 72 | 314 | 0.0 | 0.0 | 0.00 | 0.00 | 0.00 | 53 | 1012.1 |
| 20260508112457 | 72 | 313 | 0.0 | 0.0 | 0.00 | 0.00 | 0.00 | 54 | 1012.0 |
| 20260508111958 | 73 | 313 | 0.0 | 0.0 | 0.00 | 0.00 | 0.00 | 54 | 1012.2 |
| 20260508111457 | 73 | 313 | 0.0 | 0.0 | 0.00 | 0.00 | 0.00 | 52 | 1012.1 |
| 20260508110956 | 72 | 313 | 0.0 | 2.6 | 0.00 | 0.00 | 0.00 | 54 | 1012.1 |
| 20260508110458 | 72 | 313 | 0.0 | 2.6 | 0.00 | 0.00 | 0.00 | 55 | 1012.2 |
| 20260508105957 | 72 | 301 | 1.7 | 1.7 | 0.00 | 0.00 | 0.00 | 56 | 1012.1 |
| 20260508105456 | 72 | 296 | 0.0 | 1.7 | 0.00 | 0.00 | 0.00 | 59 | 1012.2 |
| 20260508104958 | 72 | 190 | 0.0 | 0.9 | 0.00 | 0.00 | 0.00 | 60 | 1012.1 |
| 20260508104454 | 71 | 190 | 0.0 | 0.9 | 0.00 | 0.00 | 0.00 | 56 | 1012.1 |
| 20260508103457 | 70 | 180 | 0.0 | 0.0 | 0.00 | 0.00 | 0.00 | 57 | 1012.2 |
| 20260508102944 | 70 | 180 | 0.0 | 0.0 | 0.00 | 0.00 | 0.00 | 65 | 1012.5 |
| 20260508102447 | 69 | 180 | 0.0 | 0.0 | 0.00 | 0.00 | 0.00 | 65 | 1012.4 |
| 20260508101944 | 68 | 180 | 0.0 | 0.0 | 0.00 | 0.00 | 0.00 | 64 | 1012.3 |
| 20260508101445 | 68 | 180 | 0.0 | 0.0 | 0.00 | 0.00 | 0.00 | 61 | 1012.1 |
| 20260508100949 | 68 | 180 | 0.0 | 0.0 | 0.00 | 0.00 | 0.00 | 63 | 1012.2 |
| 20260508100443 | 68 | 180 | 0.0 | 0.0 | 0.00 | 0.00 | 0.00 | 65 | 1012.2 |
| 20260508095445 | 68 | 180 | 0.0 | 0.0 | 0.00 | 0.00 | 0.00 | 64 | 1012.3 |
| 20260508094442 | 67 | 180 | 0.0 | 0.9 | 0.00 | 0.00 | 0.00 | 62 | 1012.1 |
| 20260508093946 | 67 | 151 | 0.0 | 0.9 | 0.00 | 0.00 | 0.00 | 65 | 1012.1 |
| 20260508093443 | 67 | 155 | 0.9 | 0.9 | 0.00 | 0.00 | 0.00 | 66 | 1012.2 |
| 20260508092944 | 67 | 208 | 0.0 | 1.7 | 0.00 | 0.00 | 0.00 | 68 | 1012.2 |
| 20260508091945 | 66 | 133 | 0.0 | 0.9 | 0.00 | 0.00 | 0.00 | 70 | 1012.0 |
| 20260508091442 | 66 | 160 | 0.0 | 0.9 | 0.00 | 0.00 | 0.00 | 72 | 1012.0 |
| 20260508085445 | 65 | 160 | 0.0 | 2.6 | 0.00 | 0.00 | 0.00 | 70 | 1011.9 |
| 20260508084444 | 65 | 137 | 0.9 | 3.5 | 0.00 | 0.00 | 0.00 | 70 | 1011.8 |
| 20260508083947 | 65 | 129 | 0.0 | 3.5 | 0.00 | 0.00 | 0.00 | 70 | 1011.8 |
| 20260508083443 | 65 | 121 | 1.7 | 2.6 | 0.00 | 0.00 | 0.00 | 70 | 1011.8 |
| 20260508082948 | 65 | 129 | 0.0 | 1.7 | 0.00 | 0.00 | 0.00 | 69 | 1011.6 |
| 20260508082446 | 65 | 173 | 0.0 | 1.7 | 0.00 | 0.00 | 0.00 | 71 | 1011.9 |
| 20260508081946 | 66 | 140 | 0.0 | 0.0 | 0.00 | 0.00 | 0.00 | 66 | 1011.6 |
| 20260508080949 | 65 | 132 | 0.0 | 2.6 | 0.00 | 0.00 | 0.00 | 66 | 1011.7 |
| 20260508075410 | 65 | 311 | 0.0 | 0.9 | 0.00 | 0.00 | 0.00 | 67 | 1011.5 |
| 20260508074857 | 64 | 311 | 0.0 | 0.0 | 0.00 | 0.00 | 0.00 | 68 | 1011.5 |
| 20260508074358 | 64 | 312 | 0.0 | 0.0 | 0.00 | 0.00 | 0.00 | 68 | 1011.5 |
| 20260508073357 | 63 | 344 | 0.0 | 0.0 | 0.00 | 0.00 | 0.00 | 72 | 1011.8 |
| 20260508072858 | 61 | 344 | 0.0 | 0.0 | 0.00 | 0.00 | 0.00 | 77 | 1011.4 |
| 20260508071357 | 61 | 344 | 0.0 | 0.9 | 0.00 | 0.00 | 0.00 | 76 | 1011.4 |
| 20260508070857 | 59 | 344 | 0.0 | 0.9 | 0.00 | 0.00 | 0.00 | 79 | 1011.7 |
| 20260508070356 | 58 | 337 | 0.0 | 0.0 | 0.00 | 0.00 | 0.00 | 79 | 1011.7 |
| 20260508065859 | 58 | 338 | 0.0 | 0.0 | 0.00 | 0.00 | 0.00 | 80 | 1011.6 |
| 20260508065356 | 56 | 338 | 0.0 | 0.0 | 0.00 | 0.00 | 0.00 | 85 | 1011.6 |
| 20260508064858 | 56 | 338 | 0.0 | 0.0 | 0.00 | 0.00 | 0.00 | 85 | 1011.5 |
| 20260508064357 | 55 | 338 | 0.0 | 0.9 | 0.00 | 0.00 | 0.00 | 86 | 1011.7 |
| 20260508063855 | 55 | 338 | 0.0 | 0.9 | 0.00 | 0.00 | 0.00 | 87 | 1011.7 |
| 20260508063356 | 55 | 337 | 0.0 | 1.7 | 0.00 | 0.00 | 0.00 | 85 | 1011.8 |
| 20260508062858 | 54 | 337 | 0.0 | 1.7 | 0.00 | 0.00 | 0.00 | 86 | 1011.8 |
| 20260508062358 | 53 | 337 | 0.9 | 0.9 | 0.00 | 0.00 | 0.00 | 87 | 1011.8 |
| 20260508061854 | 53 | 338 | 0.0 | 0.0 | 0.00 | 0.00 | 0.00 | 88 | 1011.8 |
| 20260508061356 | 53 | 338 | 0.0 | 0.0 | 0.00 | 0.00 | 0.00 | 88 | 1011.7 |
| 20260508060855 | 53 | 337 | 0.0 | 0.0 | 0.00 | 0.00 | 0.00 | 88 | 1011.7 |
| 20260508055857 | 52 | 338 | 0.0 | 0.0 | 0.00 | 0.00 | 0.00 | 89 | 1011.7 |
| 20260508055356 | 51 | 337 | 0.0 | 0.9 | 0.00 | 0.00 | 0.00 | 89 | 1011.8 |
| 20260508054856 | 51 | 337 | 0.0 | 0.9 | 0.00 | 0.00 | 0.00 | 89 | 1011.7 |
| 20260508054358 | 51 | 337 | 0.0 | 0.0 | 0.00 | 0.00 | 0.00 | 90 | 1011.7 |
| 20260508053856 | 50 | 337 | 0.0 | 1.7 | 0.00 | 0.00 | 0.00 | 92 | 1011.6 |
| 20260508053357 | 49 | 338 | 0.0 | 1.7 | 0.00 | 0.00 | 0.00 | 93 | 1011.6 |
| 20260508052859 | 49 | 339 | 0.0 | 0.0 | 0.00 | 0.00 | 0.00 | 93 | 1011.4 |
| 20260508052356 | 49 | 339 | 0.0 | 0.0 | 0.00 | 0.00 | 0.00 | 93 | 1011.6 |
| 20260508051855 | 48 | 339 | 0.0 | 0.9 | 0.00 | 0.00 | 0.00 | 94 | 1011.6 |
| 20260508050854 | 48 | 340 | 0.0 | 0.9 | 0.00 | 0.00 | 0.00 | 94 | 1011.7 |
| 20260508050357 | 48 | 340 | 0.0 | 0.0 | 0.00 | 0.00 | 0.00 | 94 | 1011.5 |
| 20260508045856 | 48 | 339 | 0.0 | 0.0 | 0.00 | 0.00 | 0.00 | 94 | 1011.3 |
| 20260508045354 | 48 | 340 | 0.0 | 0.0 | 0.00 | 0.00 | 0.00 | 94 | 1011.6 |
| 20260508044857 | 48 | 339 | 0.0 | 0.0 | 0.00 | 0.00 | 0.00 | 94 | 1011.4 |
| 20260508044358 | 47 | 340 | 0.0 | 0.0 | 0.00 | 0.00 | 0.00 | 94 | 1011.3 |
| 20260508043856 | 47 | 340 | 0.0 | 0.0 | 0.00 | 0.00 | 0.00 | 94 | 1011.4 |
| 20260508043355 | 47 | 340 | 0.0 | 0.0 | 0.00 | 0.00 | 0.00 | 94 | 1011.4 |
| 20260508042355 | 47 | 343 | 0.0 | 0.0 | 0.00 | 0.00 | 0.00 | 94 | 1011.1 |
| 20260508041855 | 47 | 343 | 0.0 | 0.0 | 0.00 | 0.00 | 0.00 | 94 | 1011.1 |
| 20260508041344 | 47 | 343 | 0.0 | 1.7 | 0.00 | 0.00 | 0.00 | 94 | 1011.2 |
| 20260508040842 | 47 | 343 | 0.0 | 1.7 | 0.00 | 0.00 | 0.00 | 94 | 1011.0 |
| 20260508040349 | 47 | 11 | 0.9 | 1.7 | 0.00 | 0.00 | 0.00 | 94 | 1011.2 |
| 20260508035844 | 47 | 17 | 0.9 | 1.7 | 0.00 | 0.00 | 0.00 | 94 | 1011.0 |
| 20260508034847 | 47 | 38 | 0.0 | 0.0 | 0.00 | 0.00 | 0.00 | 94 | 1011.1 |
| 20260508034345 | 47 | 38 | 0.0 | 0.0 | 0.00 | 0.00 | 0.00 | 94 | 1011.0 |
| 20260508033844 | 47 | 39 | 0.0 | 0.0 | 0.00 | 0.00 | 0.00 | 94 | 1011.0 |
| 20260508032843 | 47 | 39 | 0.0 | 0.0 | 0.00 | 0.00 | 0.00 | 94 | 1011.1 |
| 20260508032344 | 47 | 37 | 0.0 | 0.0 | 0.00 | 0.00 | 0.00 | 94 | 1011.0 |
| 20260508030845 | 47 | 37 | 0.0 | 0.0 | 0.00 | 0.00 | 0.00 | 94 | 1010.9 |
| 20260508030347 | 47 | 38 | 0.0 | 0.0 | 0.00 | 0.00 | 0.00 | 93 | 1011.0 |
| 20260508025831 | 46 | 38 | 0.0 | 0.0 | 0.00 | 0.00 | 0.00 | 93 | 1011.1 |
| 20260508025332 | 47 | 38 | 0.0 | 0.0 | 0.00 | 0.00 | 0.00 | 93 | 1011.1 |
| 20260508024832 | 47 | 39 | 0.0 | 0.0 | 0.00 | 0.00 | 0.00 | 93 | 1011.1 |
| 20260508024324 | 47 | 39 | 0.0 | 0.0 | 0.00 | 0.00 | 0.00 | 93 | 1011.2 |
| 20260508023820 | 47 | 38 | 0.0 | 0.0 | 0.00 | 0.00 | 0.00 | 93 | 1011.2 |
| 20260508023319 | 47 | 38 | 0.0 | 0.0 | 0.00 | 0.00 | 0.00 | 93 | 1011.3 |
| 20260508022309 | 47 | 38 | 0.0 | 0.0 | 0.00 | 0.00 | 0.00 | 93 | 1011.3 |
| 20260508021757 | 48 | 38 | 0.0 | 0.9 | 0.00 | 0.00 | 0.00 | 93 | 1011.4 |
| 20260508021257 | 47 | 40 | 0.0 | 0.9 | 0.00 | 0.00 | 0.00 | 94 | 1011.1 |
| 20260508020759 | 47 | 40 | 0.0 | 0.0 | 0.00 | 0.00 | 0.00 | 94 | 1011.4 |
| 20260508020257 | 47 | 40 | 0.0 | 0.9 | 0.00 | 0.00 | 0.00 | 93 | 1011.4 |
| 20260508015756 | 47 | 40 | 0.0 | 0.9 | 0.00 | 0.00 | 0.00 | 94 | 1011.2 |
| 20260508015258 | 47 | 42 | 0.0 | 0.0 | 0.00 | 0.00 | 0.00 | 94 | 1011.6 |
| 20260508014756 | 47 | 69 | 0.0 | 0.0 | 0.00 | 0.00 | 0.00 | 94 | 1011.7 |
| 20260508014255 | 47 | 72 | 0.0 | 0.0 | 0.00 | 0.00 | 0.00 | 93 | 1011.5 |
| 20260508013744 | 47 | 69 | 0.0 | 0.0 | 0.00 | 0.00 | 0.00 | 94 | 1011.5 |
| 20260508013246 | 47 | 81 | 0.0 | 0.0 | 0.00 | 0.00 | 0.00 | 93 | 1011.8 |
| 20260508012745 | 47 | 81 | 0.0 | 0.9 | 0.00 | 0.00 | 0.00 | 93 | 1011.7 |
| 20260508012243 | 47 | 81 | 0.0 | 0.9 | 0.00 | 0.00 | 0.00 | 93 | 1011.8 |
| 20260508011745 | 47 | 28 | 0.0 | 0.9 | 0.00 | 0.00 | 0.00 | 93 | 1011.6 |
| 20260508011245 | 47 | 41 | 0.0 | 0.0 | 0.00 | 0.00 | 0.00 | 93 | 1011.5 |
| 20260508010722 | 47 | 41 | 0.0 | 0.0 | 0.00 | 0.00 | 0.00 | 93 | 1011.8 |
| 20260508010220 | 47 | 41 | 0.0 | 0.0 | 0.00 | 0.00 | 0.00 | 93 | 1011.7 |
| 20260508005720 | 47 | 41 | 0.0 | 0.0 | 0.00 | 0.00 | 0.00 | 93 | 1011.8 |
| 20260508005207 | 48 | 41 | 0.0 | 0.0 | 0.00 | 0.00 | 0.00 | 93 | 1011.9 |
| 20260508004709 | 47 | 41 | 0.0 | 0.0 | 0.00 | 0.00 | 0.00 | 93 | 1012.0 |
| 20260508004208 | 47 | 41 | 0.0 | 0.0 | 0.00 | 0.00 | 0.00 | 93 | 1012.0 |
| 20260508003657 | 47 | 41 | 0.0 | 0.0 | 0.00 | 0.00 | 0.00 | 92 | 1012.1 |
| 20260508003158 | 48 | 41 | 0.0 | 0.0 | 0.00 | 0.00 | 0.00 | 92 | 1012.1 |
| 20260508002656 | 48 | 41 | 0.0 | 0.0 | 0.00 | 0.00 | 0.00 | 92 | 1012.2 |
| 20260508001657 | 48 | 41 | 0.0 | 0.9 | 0.00 | 0.00 | 0.00 | 92 | 1012.4 |
| 20260508001155 | 48 | 40 | 0.0 | 0.9 | 0.00 | 0.00 | 0.00 | 92 | 1012.3 |
| 20260508000656 | 48 | 50 | 0.0 | 0.9 | 0.00 | 0.00 | 0.00 | 92 | 1012.3 |
| 20260507235148 | 49 | 49 | 0.0 | 0.9 | 0.00 | 0.00 | 0.00 | 92 | 1012.4 |
| 20260507234642 | 48 | 91 | 0.0 | 0.9 | 0.00 | 0.00 | 0.00 | 91 | 1012.5 |
| 20260507234144 | 49 | 90 | 0.0 | 0.9 | 0.00 | 0.00 | 0.00 | 91 | 1012.7 |
| 20260507233144 | 49 | 8 | 0.9 | 0.9 | 0.00 | 0.00 | 0.00 | 91 | 1012.6 |
| 20260507232644 | 49 | 9 | 0.0 | 0.0 | 0.00 | 0.00 | 0.00 | 90 | 1012.8 |
| 20260507232147 | 49 | 9 | 0.0 | 0.0 | 0.00 | 0.00 | 0.00 | 90 | 1012.9 |
| 20260507231645 | 49 | 8 | 0.0 | 0.0 | 0.00 | 0.00 | 0.00 | 90 | 1013.0 |
| 20260507231143 | 49 | 10 | 0.0 | 1.7 | 0.00 | 0.00 | 0.00 | 90 | 1012.9 |
| 20260507230646 | 50 | 9 | 0.0 | 1.7 | 0.00 | 0.00 | 0.00 | 91 | 1012.8 |
| 20260507230146 | 50 | 20 | 0.0 | 0.0 | 0.00 | 0.00 | 0.00 | 90 | 1013.0 |
| 20260507225644 | 50 | 20 | 0.0 | 0.0 | 0.00 | 0.00 | 0.00 | 90 | 1013.0 |
| 20260507224644 | 50 | 20 | 0.0 | 0.0 | 0.00 | 0.00 | 0.00 | 90 | 1013.0 |
| 20260507224145 | 50 | 20 | 0.0 | 0.0 | 0.00 | 0.00 | 0.00 | 90 | 1012.9 |
| 20260507223648 | 50 | 20 | 0.0 | 0.0 | 0.00 | 0.00 | 0.00 | 89 | 1012.9 |
| 20260507223143 | 50 | 20 | 0.0 | 0.0 | 0.00 | 0.00 | 0.00 | 89 | 1012.7 |
| 20260507222146 | 51 | 17 | 0.0 | 0.9 | 0.00 | 0.00 | 0.00 | 89 | 1012.7 |
| 20260507221643 | 50 | 18 | 0.0 | 0.9 | 0.00 | 0.00 | 0.00 | 89 | 1012.8 |
| 20260507221142 | 51 | 8 | 0.0 | 0.9 | 0.00 | 0.00 | 0.00 | 89 | 1012.4 |
| 20260507220646 | 51 | 9 | 0.0 | 0.9 | 0.00 | 0.00 | 0.00 | 88 | 1012.8 |
| 20260507220143 | 51 | 3 | 0.0 | 1.7 | 0.00 | 0.00 | 0.00 | 87 | 1012.6 |
| 20260507215643 | 51 | 2 | 0.0 | 1.7 | 0.00 | 0.00 | 0.00 | 88 | 1012.7 |
| 20260507215146 | 51 | 25 | 0.0 | 0.0 | 0.00 | 0.00 | 0.00 | 87 | 1012.7 |
| 20260507214643 | 51 | 25 | 0.0 | 0.0 | 0.00 | 0.00 | 0.00 | 87 | 1012.2 |
| 20260507214142 | 51 | 24 | 0.0 | 0.0 | 0.00 | 0.00 | 0.00 | 87 | 1012.5 |
| 20260507213646 | 51 | 25 | 0.0 | 0.9 | 0.00 | 0.00 | 0.00 | 87 | 1012.6 |
| 20260507213121 | 51 | 14 | 0.0 | 0.9 | 0.00 | 0.00 | 0.00 | 87 | 1012.3 |
| 20260507212618 | 52 | 12 | 0.0 | 0.0 | 0.00 | 0.00 | 0.00 | 86 | 1012.4 |
| 20260507212119 | 52 | 10 | 0.0 | 0.0 | 0.00 | 0.00 | 0.00 | 86 | 1012.4 |
| 20260507211607 | 52 | 10 | 0.0 | 0.0 | 0.00 | 0.00 | 0.00 | 85 | 1012.5 |
| 20260507211107 | 53 | 6 | 0.0 | 0.9 | 0.00 | 0.00 | 0.00 | 83 | 1012.4 |
| 20260507210555 | 53 | 5 | 0.0 | 0.9 | 0.00 | 0.00 | 0.00 | 85 | 1012.6 |
| 20260507210057 | 53 | 11 | 0.0 | 0.0 | 0.00 | 0.00 | 0.00 | 84 | 1012.7 |
| 20260507205557 | 53 | 5 | 0.0 | 0.0 | 0.00 | 0.00 | 0.00 | 84 | 1012.6 |
| 20260507205054 | 53 | 7 | 0.0 | 0.0 | 0.00 | 0.00 | 0.00 | 83 | 1012.8 |
| 20260507204556 | 54 | 6 | 0.0 | 0.0 | 0.00 | 0.00 | 0.00 | 83 | 1012.4 |
| 20260507204059 | 54 | 7 | 0.0 | 0.0 | 0.00 | 0.00 | 0.00 | 81 | 1012.4 |
| 20260507203556 | 54 | 7 | 0.0 | 0.0 | 0.00 | 0.00 | 0.00 | 81 | 1012.2 |
| 20260507203056 | 55 | 7 | 0.0 | 0.0 | 0.00 | 0.00 | 0.00 | 80 | 1012.5 |
| 20260507202558 | 55 | 7 | 0.0 | 0.0 | 0.00 | 0.00 | 0.00 | 80 | 1012.3 |
| 20260507202058 | 55 | 7 | 0.0 | 0.9 | 0.00 | 0.00 | 0.00 | 79 | 1012.4 |
| 20260507201556 | 56 | 7 | 0.0 | 0.9 | 0.00 | 0.00 | 0.00 | 78 | 1012.5 |
| 20260507201059 | 56 | 339 | 0.0 | 0.0 | 0.00 | 0.00 | 0.00 | 77 | 1012.4 |
| 20260507200557 | 57 | 339 | 0.0 | 1.7 | 0.00 | 0.00 | 0.00 | 75 | 1012.3 |
| 20260507200056 | 57 | 332 | 0.0 | 1.7 | 0.00 | 0.00 | 0.00 | 75 | 1012.6 |
| 20260507195558 | 57 | 342 | 0.0 | 0.9 | 0.00 | 0.00 | 0.00 | 76 | 1012.9 |
| 20260507195054 | 57 | 339 | 0.0 | 0.9 | 0.00 | 0.00 | 0.00 | 77 | 1012.5 |
| 20260507194554 | 57 | 334 | 0.0 | 0.9 | 0.00 | 0.00 | 0.00 | 77 | 1012.5 |
| 20260507194056 | 57 | 347 | 0.0 | 0.9 | 0.00 | 0.00 | 0.00 | 77 | 1012.5 |
| 20260507193555 | 57 | 54 | 0.0 | 0.9 | 0.00 | 0.00 | 0.00 | 76 | 1012.5 |
| 20260507193055 | 57 | 32 | 0.0 | 0.0 | 0.00 | 0.00 | 0.00 | 77 | 1012.6 |
| 20260507192543 | 58 | 38 | 0.0 | 0.9 | 0.00 | 0.00 | 0.00 | 76 | 1012.4 |
| 20260507192044 | 58 | 37 | 0.0 | 0.0 | 0.00 | 0.00 | 0.00 | 76 | 1012.6 |
| 20260507190542 | 59 | 314 | 0.0 | 1.7 | 0.00 | 0.00 | 0.00 | 75 | 1012.6 |
| 20260507190046 | 60 | 339 | 0.9 | 1.7 | 0.00 | 0.00 | 0.00 | 75 | 1012.3 |
| 20260507185544 | 60 | 347 | 0.0 | 1.7 | 0.00 | 0.00 | 0.00 | 74 | 1012.3 |
| 20260507185045 | 60 | 356 | 0.0 | 0.9 | 0.00 | 0.00 | 0.00 | 74 | 1012.2 |
| 20260507184546 | 61 | 324 | 0.0 | 0.9 | 0.00 | 0.00 | 0.00 | 72 | 1012.2 |
| 20260507184045 | 62 | 330 | 0.0 | 0.9 | 0.00 | 0.00 | 0.00 | 70 | 1012.2 |
| 20260507183045 | 63 | 320 | 0.0 | 1.7 | 0.00 | 0.00 | 0.00 | 67 | 1011.9 |
| 20260507182543 | 64 | 307 | 0.0 | 1.7 | 0.00 | 0.00 | 0.00 | 64 | 1012.1 |
| 20260507182043 | 65 | 313 | 0.0 | 2.6 | 0.00 | 0.00 | 0.00 | 63 | 1011.9 |
| 20260507181547 | 65 | 315 | 1.7 | 2.6 | 0.00 | 0.00 | 0.00 | 59 | 1012.0 |
| 20260507181044 | 66 | 314 | 0.0 | 1.7 | 0.00 | 0.00 | 0.00 | 60 | 1011.8 |
| 20260507180046 | 66 | 314 | 0.9 | 2.6 | 0.00 | 0.00 | 0.00 | 57 | 1011.9 |
| 20260507175543 | 67 | 314 | 0.9 | 2.6 | 0.00 | 0.00 | 0.00 | 59 | 1011.7 |
| 20260507175043 | 67 | 314 | 0.9 | 2.6 | 0.00 | 0.00 | 0.00 | 59 | 1011.6 |
| 20260507174545 | 67 | 316 | 0.9 | 2.6 | 0.00 | 0.00 | 0.00 | 58 | 1011.6 |
| 20260507174043 | 67 | 312 | 0.9 | 1.7 | 0.00 | 0.00 | 0.00 | 57 | 1011.5 |
| 20260507173543 | 68 | 312 | 0.9 | 1.7 | 0.00 | 0.00 | 0.00 | 57 | 1011.4 |
| 20260507173044 | 69 | 311 | 0.0 | 1.7 | 0.00 | 0.00 | 0.00 | 54 | 1011.4 |
| 20260507172543 | 69 | 311 | 0.0 | 1.7 | 0.00 | 0.00 | 0.00 | 52 | 1011.2 |
| 20260507171545 | 69 | 311 | 0.9 | 2.6 | 0.00 | 0.00 | 0.00 | 52 | 1011.3 |
| 20260507171043 | 69 | 311 | 0.9 | 2.6 | 0.00 | 0.00 | 0.00 | 52 | 1011.2 |
| 20260507170546 | 69 | 310 | 0.9 | 2.6 | 0.00 | 0.00 | 0.00 | 51 | 1011.3 |
| 20260507170045 | 69 | 311 | 0.0 | 1.7 | 0.00 | 0.00 | 0.00 | 52 | 1011.1 |
| 20260507165542 | 69 | 311 | 0.9 | 1.7 | 0.00 | 0.00 | 0.00 | 49 | 1011.4 |
| 20260507165043 | 69 | 311 | 1.7 | 5.2 | 0.00 | 0.00 | 0.00 | 48 | 1011.4 |
| 20260507164545 | 69 | 315 | 0.9 | 5.2 | 0.00 | 0.00 | 0.00 | 48 | 1011.3 |
| 20260507164044 | 70 | 295 | 0.9 | 2.6 | 0.00 | 0.00 | 0.00 | 48 | 1011.5 |
| 20260507163045 | 69 | 307 | 0.0 | 1.7 | 0.00 | 0.00 | 0.00 | 51 | 1011.4 |
| 20260507162544 | 69 | 313 | 0.0 | 2.6 | 0.00 | 0.00 | 0.00 | 49 | 1011.4 |
| 20260507162043 | 69 | 313 | 0.9 | 2.6 | 0.00 | 0.00 | 0.00 | 52 | 1011.3 |
| 20260507161548 | 68 | 316 | 0.9 | 1.7 | 0.00 | 0.00 | 0.00 | 52 | 1011.5 |
| 20260507160534 | 69 | 316 | 0.0 | 1.7 | 0.00 | 0.00 | 0.00 | 51 | 1011.5 |
| 20260507155532 | 69 | 317 | 0.0 | 0.0 | 0.00 | 0.00 | 0.00 | 51 | 1011.5 |
| 20260507155034 | 70 | 317 | 0.0 | 1.7 | 0.00 | 0.00 | 0.00 | 49 | 1011.5 |
| 20260507154540 | 70 | 317 | 0.0 | 1.7 | 0.00 | 0.00 | 0.00 | 51 | 1011.2 |
| 20260507154032 | 71 | 320 | 0.0 | 6.1 | 0.00 | 0.00 | 0.00 | 47 | 1011.5 |
| 20260507153521 | 71 | 317 | 0.0 | 6.1 | 0.00 | 0.00 | 0.00 | 46 | 1011.5 |
| 20260507152524 | 71 | 335 | 0.0 | 1.7 | 0.00 | 0.00 | 0.00 | 43 | 1011.6 |
| 20260507152007 | 71 | 332 | 0.0 | 0.0 | 0.00 | 0.00 | 0.00 | 46 | 1011.7 |
| 20260507151511 | 71 | 332 | 0.0 | 1.7 | 0.00 | 0.00 | 0.00 | 43 | 1011.5 |
| 20260507151008 | 71 | 331 | 0.0 | 1.7 | 0.00 | 0.00 | 0.00 | 47 | 1011.5 |
| 20260507150509 | 71 | 49 | 0.9 | 6.1 | 0.00 | 0.00 | 0.00 | 46 | 1011.5 |
| 20260507150011 | 71 | 325 | 1.7 | 6.1 | 0.00 | 0.00 | 0.00 | 45 | 1011.5 |
| 20260507145508 | 71 | 323 | 2.6 | 6.1 | 0.00 | 0.00 | 0.00 | 48 | 1011.6 |
| 20260507145009 | 71 | 307 | 2.6 | 6.1 | 0.00 | 0.00 | 0.00 | 46 | 1011.7 |
| 20260507144510 | 71 | 326 | 1.7 | 5.2 | 0.00 | 0.00 | 0.00 | 47 | 1011.8 |
| 20260507144010 | 71 | 323 | 2.6 | 6.1 | 0.00 | 0.00 | 0.00 | 46 | 1011.7 |
| 20260507143509 | 72 | 314 | 4.3 | 6.1 | 0.00 | 0.00 | 0.00 | 44 | 1011.8 |
| 20260507143011 | 71 | 348 | 0.9 | 2.6 | 0.00 | 0.00 | 0.00 | 50 | 1011.9 |
| 20260507142008 | 71 | 6 | 0.0 | 3.5 | 0.00 | 0.00 | 0.00 | 46 | 1012.1 |
| 20260507141501 | 71 | 316 | 1.7 | 3.5 | 0.00 | 0.00 | 0.00 | 46 | 1012.0 |